Regional Weather Roundup
Issued by NWS

Home | Current Version | Previous Version | Graphics & Text | Print | Product List | Glossary On
Versions: 1 2 3 4 5 6 7 8 9 10 11 12 13 14 15 16 17 18 19 20 21 22 23 24 25 26 27 28 29 30 31 32 33 34 35 36 37 38 39 40 41 42 43 44 45 46 47 48 49 50
000
ASUS43 KOAX 070002
RWRNE

WEATHER ROUNDUP FOR NEBRASKA
NATIONAL WEATHER SERVICE OMAHA NE
700 PM CDT WED MAY 06 2015

NOTES: SATELLITE DATA IS BEING USED TO AUGMENT CLOUD COVER ABOVE
       12000 FEET.
       "FAIR" INDICATES FEW OR NO CLOUDS BELOW 12,000 FEET WITH NO
       SIGNIFICANT WEATHER AND/OR OBSTRUCTIONS TO VISIBILITY.

  * THESE STATIONS DO NOT REPORT WEATHER SUCH AS RAIN...SNOW OR FOG.

NEZ001>004-019>022-054>056-070100-
NEBRASKA PANHANDLE

CITY           SKY/WX    TMP DP  RH WIND       PRES   REMARKS
SCOTTSBLUFF    LGT RAIN  59  54  83 NW10      29.64R
6HR MIN TEMP:  57; 6HR MAX TEMP:  63; 6HR PCP:  0.11;

ALLIANCE       CLOUDY    58  52  80 S12       29.60S
6HR MIN TEMP:  58; 6HR MAX TEMP:  65; 6HR PCP: TRACE;

CHADRON        CLOUDY    62  52  69 NW14      29.60R
6HR MIN TEMP:  61; 6HR MAX TEMP:  68;

SIDNEY         PTSUNNY   58  53  84 NW6       29.64R
6HR MIN TEMP:  54; 6HR MAX TEMP:  59; 6HR PCP:  0.14;

$$

NEZ057>060-069>072-079>082-070100-
SOUTHWEST NEBRASKA

CITY           SKY/WX    TMP DP  RH WIND       PRES   REMARKS
NORTH PLATTE   CLOUDY    65  53  65 S9        29.58S
6HR MIN TEMP:  62; 6HR MAX TEMP:  67; 6HR PCP:  0.03;

IMPERIAL       CLOUDY    61  54  77 S13       29.58R
6HR MIN TEMP:  60; 6HR MAX TEMP:  63; 6HR PCP: TRACE;

MCCOOK         CLOUDY    69  54  58 SW7       29.57F
6HR MIN TEMP:  63; 6HR MAX TEMP:  72; 6HR PCP: TRACE;

$$

NEZ005>010-023>029-035>040-094-070100-
NORTH CENTRAL NEBRASKA

CITY           SKY/WX    TMP DP  RH WIND       PRES   REMARKS
VALENTINE      CLOUDY    62  57  83 CALM      29.60F
6HR MIN TEMP:  57; 6HR MAX TEMP:  66; 6HR PCP:  0.42;

AINSWORTH      PTSUNNY   69  56  62 S6        29.60S
BROKEN BOW     PTSUNNY   63  57  81 SE14      29.59F
6HR MIN TEMP:  63; 6HR MAX TEMP:  71; 6HR PCP: TRACE;

ORD            LGT RAIN  61  57  87 E8        29.60F
6HR MIN TEMP:  61; 6HR MAX TEMP:  69; 6HR PCP:  0.15;

$$

NEZ041-046>049-061>064-073>077-083>087-070100-
SOUTH CENTRAL NEBRASKA

CITY           SKY/WX    TMP DP  RH WIND       PRES   REMARKS
GRAND ISLAND   LGT RAIN  62  59  90 SE22G30   29.61S
6HR MIN TEMP:  62; 6HR MAX TEMP:  67; 6HR PCP:  0.29;

HASTINGS       CLOUDY    59  56  89 SE17G24   29.63R
6HR MIN TEMP:  59; 6HR MAX TEMP:  69; 6HR PCP:  0.53;

KEARNEY *      CLOUDY    63  55  77 SE20      29.60
$$

NEZ011>018-030>034-042>045-070100-
NORTHEAST NEBRASKA

CITY           SKY/WX    TMP DP  RH WIND       PRES   REMARKS
NORFOLK        CLOUDY    67  61  81 SE22G32   29.67S
6HR MIN TEMP:  64; 6HR MAX TEMP:  69; 6HR PCP:  0.01;

COLUMBUS *     CLOUDY    64  59  82 SE18G26   29.70F
TEKAMAH        PTSUNNY   70  62  76 SE23G31   29.74F
6HR MIN TEMP:  65; 6HR MAX TEMP:  74; 6HR PCP:  0.25;

$$

NEZ050>053-065>068-078-088>093-070100-
SOUTHEAST NEBRASKA

CITY           SKY/WX    TMP DP  RH WIND       PRES   REMARKS
LINCOLN        LGT RAIN  68  62  81 SE16G29   29.72F
6HR MIN TEMP:  64; 6HR MAX TEMP:  71; 6HR PCP: TRACE;

OMAHA EPPLEY   CLOUDY    71  61  70 S20       29.76F
6HR MIN TEMP:  67; 6HR MAX TEMP:  73; 6HR PCP:  0.19;

FALLS CITY     MOSUNNY   69  59  70 SE17G32   29.79S
6HR MIN TEMP:  65; 6HR MAX TEMP:  74; 6HR PCP: TRACE;

$$

NEZ044-045-051>053-067-070100-
OMAHA AREA

CITY           SKY/WX    TMP DP  RH WIND       PRES   REMARKS
OMAHA EPPLEY   CLOUDY    71  61  70 S20       29.76F
6HR MIN TEMP:  67; 6HR MAX TEMP:  73; 6HR PCP:  0.19;

$$



USA.gov is the U.S. government's official web portal to all federal, state and local government web resources and services.